Time,TemperatureF,DewpointF,PressureIn,WindDirection,WindDirectionDegrees,WindSpeedMPH,WindSpeedGustMPH,Humidity,HourlyPrecipIn,Conditions,Clouds,dailyrainin,SoftwareType,DateUTC
2013-07-02 00:00:00,71.4,51.8,29.76,SE,135,0.0,0.0,50,0.00,,,0.00,WUHU21623XXSP,2013-07-02 07:00:00,
2013-07-02 00:05:00,71.2,51.7,29.77,SSW,202,0.0,0.0,50,0.00,,,0.00,WUHU21623XXSP,2013-07-02 07:05:00,
2013-07-02 00:10:00,71.2,52.2,29.76,SSE,157,0.0,0.0,51,0.00,,,0.00,WUHU21623XXSP,2013-07-02 07:10:00,
2013-07-02 00:15:00,70.9,51.8,29.76,North,0,0.0,0.0,51,0.00,,,0.00,WUHU21623XXSP,2013-07-02 07:15:00,
2013-07-02 00:20:00,70.7,51.7,29.76,NNW,337,0.0,0.0,51,0.00,,,0.00,WUHU21623XXSP,2013-07-02 07:20:00,
2013-07-02 00:25:00,70.7,51.7,29.76,ESE,112,0.0,0.0,51,0.00,,,0.00,WUHU21623XXSP,2013-07-02 07:25:00,
2013-07-02 00:30:00,70.5,51.5,29.76,WNW,292,0.0,0.0,51,0.00,,,0.00,WUHU21623XXSP,2013-07-02 07:30:00,
2013-07-02 00:35:00,70.5,52.0,29.75,NNW,337,0.0,0.0,52,0.00,,,0.00,WUHU21623XXSP,2013-07-02 07:35:00,
2013-07-02 00:40:00,70.3,51.9,29.75,North,0,0.0,0.0,52,0.00,,,0.00,WUHU21623XXSP,2013-07-02 07:40:00,
2013-07-02 00:45:00,70.3,52.4,29.75,WSW,247,0.0,0.0,53,0.00,,,0.00,WUHU21623XXSP,2013-07-02 07:45:00,
2013-07-02 00:50:00,70.3,52.4,29.76,South,180,0.0,0.0,53,0.00,,,0.00,WUHU21623XXSP,2013-07-02 07:50:00,
2013-07-02 00:55:00,70.3,52.4,29.76,West,270,0.7,1.1,53,0.00,,,0.00,WUHU21623XXSP,2013-07-02 07:55:00,
2013-07-02 01:00:00,70.3,52.4,29.75,SW,225,0.0,1.8,53,0.00,,,0.00,WUHU21623XXSP,2013-07-02 08:00:00,
2013-07-02 01:05:00,70.3,52.4,29.75,SW,225,0.0,1.8,53,0.00,,,0.00,WUHU21623XXSP,2013-07-02 08:05:00,
2013-07-02 01:13:00,70.2,52.2,29.75,WSW,247,0.0,0.0,53,0.00,,,0.00,WUHU21623XXSP,2013-07-02 08:13:00,
2013-07-02 01:18:00,70.2,52.2,29.75,WNW,292,0.0,0.0,53,0.00,,,0.00,WUHU21623XXSP,2013-07-02 08:18:00,
2013-07-02 01:23:00,70.2,52.2,29.76,WSW,247,0.0,0.0,53,0.00,,,0.00,WUHU21623XXSP,2013-07-02 08:23:00,
2013-07-02 01:28:00,70.2,52.7,29.75,South,180,0.9,0.9,54,0.00,,,0.00,WUHU21623XXSP,2013-07-02 08:28:00,
2013-07-02 01:33:00,70.2,52.2,29.75,WSW,247,0.0,0.9,53,0.00,,,0.00,WUHU21623XXSP,2013-07-02 08:33:00,
2013-07-02 01:38:00,70.2,52.7,29.75,ESE,112,0.0,0.0,54,0.00,,,0.00,WUHU21623XXSP,2013-07-02 08:38:00,
2013-07-02 01:43:00,70.0,52.5,29.75,NNE,22,0.0,0.0,54,0.00,,,0.00,WUHU21623XXSP,2013-07-02 08:43:00,
2013-07-02 01:48:00,70.0,52.5,29.75,South,180,0.0,0.0,54,0.00,,,0.00,WUHU21623XXSP,2013-07-02 08:48:00,
2013-07-02 01:53:00,70.0,52.5,29.75,SSW,202,0.0,0.0,54,0.00,,,0.00,WUHU21623XXSP,2013-07-02 08:53:00,
2013-07-02 01:58:00,69.6,52.2,29.75,SE,135,0.0,0.0,54,0.00,,,0.00,WUHU21623XXSP,2013-07-02 08:58:00,
2013-07-02 02:03:00,69.6,52.2,29.75,SE,135,0.0,0.0,54,0.00,,,0.00,WUHU21623XXSP,2013-07-02 09:03:00,
2013-07-02 02:11:00,69.6,52.7,29.75,SE,135,0.0,0.0,55,0.00,,,0.00,WUHU21623XXSP,2013-07-02 09:11:00,
2013-07-02 02:16:00,69.4,52.5,29.75,South,180,0.0,0.0,55,0.00,,,0.00,WUHU21623XXSP,2013-07-02 09:16:00,
2013-07-02 02:21:00,69.4,52.5,29.75,South,180,0.0,0.0,55,0.00,,,0.00,WUHU21623XXSP,2013-07-02 09:21:00,
2013-07-02 02:26:00,69.1,52.2,29.75,SE,135,0.0,0.0,55,0.00,,,0.00,WUHU21623XXSP,2013-07-02 09:26:00,
2013-07-02 02:31:00,69.1,52.2,29.75,East,90,0.0,0.0,55,0.00,,,0.00,WUHU21623XXSP,2013-07-02 09:31:00,
2013-07-02 02:36:00,68.9,52.5,29.75,East,90,0.0,0.0,56,0.00,,,0.00,WUHU21623XXSP,2013-07-02 09:36:00,
2013-07-02 02:41:00,68.7,52.3,29.75,ENE,67,0.0,0.0,56,0.00,,,0.00,WUHU21623XXSP,2013-07-02 09:41:00,
2013-07-02 02:46:00,68.7,52.3,29.75,ENE,67,0.0,0.0,56,0.00,,,0.00,WUHU21623XXSP,2013-07-02 09:46:00,
2013-07-02 02:51:00,68.5,52.2,29.75,NE,45,0.0,0.0,56,0.00,,,0.00,WUHU21623XXSP,2013-07-02 09:51:00,
2013-07-02 02:56:00,68.4,52.5,29.75,NNE,22,0.0,0.0,57,0.00,,,0.00,WUHU21623XXSP,2013-07-02 09:56:00,
2013-07-02 03:01:00,68.2,52.3,29.75,NNE,22,0.0,0.0,57,0.00,,,0.00,WUHU21623XXSP,2013-07-02 10:01:00,
2013-07-02 03:13:00,67.8,52.5,29.75,East,90,0.0,0.0,58,0.00,,,0.00,WUHU21623XXSP,2013-07-02 10:13:00,
2013-07-02 03:18:00,67.8,52.5,29.76,SSE,157,0.0,0.0,58,0.00,,,0.00,WUHU21623XXSP,2013-07-02 10:18:00,
2013-07-02 03:23:00,67.6,52.3,29.75,ESE,112,0.0,0.0,58,0.00,,,0.00,WUHU21623XXSP,2013-07-02 10:23:00,
2013-07-02 03:28:00,67.6,52.8,29.75,ENE,67,0.0,0.0,59,0.00,,,0.00,WUHU21623XXSP,2013-07-02 10:28:00,
2013-07-02 03:33:00,67.6,52.8,29.75,NE,45,0.0,0.0,59,0.00,,,0.00,WUHU21623XXSP,2013-07-02 10:33:00,
2013-07-02 03:38:00,67.6,53.3,29.75,NE,45,0.0,0.0,60,0.00,,,0.00,WUHU21623XXSP,2013-07-02 10:38:00,
2013-07-02 03:43:00,67.3,53.0,29.75,East,90,0.0,0.0,60,0.00,,,0.00,WUHU21623XXSP,2013-07-02 10:43:00,
2013-07-02 03:48:00,67.3,53.0,29.75,East,90,0.0,0.0,60,0.00,,,0.00,WUHU21623XXSP,2013-07-02 10:48:00,
2013-07-02 03:53:00,67.3,52.5,29.75,ENE,67,0.0,0.0,59,0.00,,,0.00,WUHU21623XXSP,2013-07-02 10:53:00,
2013-07-02 03:58:00,67.3,53.0,29.75,ENE,67,0.0,0.0,60,0.00,,,0.00,WUHU21623XXSP,2013-07-02 10:58:00,
2013-07-02 04:03:00,67.3,53.0,29.75,ENE,67,0.0,0.0,60,0.00,,,0.00,WUHU21623XXSP,2013-07-02 11:03:00,
2013-07-02 04:13:00,67.1,53.2,29.74,ENE,67,0.0,0.0,61,0.00,,,0.00,WUHU21623XXSP,2013-07-02 11:13:00,
2013-07-02 04:18:00,67.1,53.2,29.74,ENE,67,0.0,0.0,61,0.00,,,0.00,WUHU21623XXSP,2013-07-02 11:18:00,
2013-07-02 04:23:00,67.1,52.8,29.74,SE,135,0.0,0.0,60,0.00,,,0.00,WUHU21623XXSP,2013-07-02 11:23:00,
2013-07-02 04:28:00,67.1,52.8,29.74,SW,225,0.0,0.0,60,0.00,,,0.00,WUHU21623XXSP,2013-07-02 11:28:00,
2013-07-02 04:33:00,67.1,52.8,29.74,SW,225,0.0,0.0,60,0.00,,,0.00,WUHU21623XXSP,2013-07-02 11:33:00,
2013-07-02 04:38:00,67.1,53.2,29.75,SW,225,0.0,0.0,61,0.00,,,0.00,WUHU21623XXSP,2013-07-02 11:38:00,
2013-07-02 04:43:00,67.3,53.4,29.75,South,180,0.0,0.0,61,0.00,,,0.00,WUHU21623XXSP,2013-07-02 11:43:00,
2013-07-02 04:48:00,67.3,53.8,29.75,SSE,157,0.0,0.0,62,0.00,,,0.00,WUHU21623XXSP,2013-07-02 11:48:00,
2013-07-02 04:53:00,67.3,53.8,29.75,East,90,0.0,0.0,62,0.00,,,0.00,WUHU21623XXSP,2013-07-02 11:53:00,
2013-07-02 04:58:00,67.1,53.6,29.76,East,90,0.0,0.0,62,0.00,,,0.00,WUHU21623XXSP,2013-07-02 11:58:00,
2013-07-02 05:03:00,67.1,53.6,29.76,SE,135,0.0,0.0,62,0.00,,,0.00,WUHU21623XXSP,2013-07-02 12:03:00,
2013-07-02 05:08:00,67.1,53.6,29.76,ESE,112,0.0,0.0,62,0.00,,,0.00,WUHU21623XXSP,2013-07-02 12:08:00,
2013-07-02 05:13:00,67.1,53.6,29.77,East,90,0.0,0.0,62,0.00,,,0.00,WUHU21623XXSP,2013-07-02 12:13:00,
2013-07-02 05:18:00,66.9,53.5,29.77,East,90,0.0,0.0,62,0.00,,,0.00,WUHU21623XXSP,2013-07-02 12:18:00,
2013-07-02 05:23:00,66.9,53.5,29.76,East,90,0.0,0.0,62,0.00,,,0.00,WUHU21623XXSP,2013-07-02 12:23:00,
2013-07-02 05:28:00,66.9,53.5,29.77,ENE,67,0.0,0.0,62,0.00,,,0.00,WUHU21623XXSP,2013-07-02 12:28:00,
2013-07-02 05:33:00,66.7,53.3,29.77,ENE,67,0.0,0.0,62,0.00,,,0.00,WUHU21623XXSP,2013-07-02 12:33:00,
2013-07-02 05:43:00,66.7,53.7,29.76,ENE,67,0.0,0.0,63,0.00,,,0.00,WUHU21623XXSP,2013-07-02 12:43:00,
2013-07-02 05:48:00,66.6,53.1,29.76,ENE,67,0.0,0.0,62,0.00,,,0.00,WUHU21623XXSP,2013-07-02 12:48:00,
2013-07-02 05:53:00,66.6,53.5,29.76,NE,45,0.0,0.0,63,0.00,,,0.00,WUHU21623XXSP,2013-07-02 12:53:00,
2013-07-02 05:58:00,66.6,54.0,29.77,ENE,67,0.0,0.0,64,0.00,,,0.00,WUHU21623XXSP,2013-07-02 12:58:00,
2013-07-02 06:03:00,66.6,54.0,29.77,ENE,67,0.0,0.0,64,0.00,,,0.00,WUHU21623XXSP,2013-07-02 13:03:00,
2013-07-02 06:13:00,66.6,54.0,29.77,SW,225,0.0,0.0,64,0.00,,,0.00,WUHU21623XXSP,2013-07-02 13:13:00,
2013-07-02 06:18:00,66.4,53.8,29.77,SW,225,0.0,0.0,64,0.00,,,0.00,WUHU21623XXSP,2013-07-02 13:18:00,
2013-07-02 06:23:00,66.6,54.4,29.77,South,180,0.0,0.0,65,0.00,,,0.00,WUHU21623XXSP,2013-07-02 13:23:00,
2013-07-02 06:28:00,66.4,54.2,29.78,SE,135,0.0,0.0,65,0.00,,,0.00,WUHU21623XXSP,2013-07-02 13:28:00,
2013-07-02 06:33:00,66.4,54.2,29.78,ESE,112,0.0,0.0,65,0.00,,,0.00,WUHU21623XXSP,2013-07-02 13:33:00,
2013-07-02 06:38:00,66.4,54.6,29.78,East,90,0.0,0.0,66,0.00,,,0.00,WUHU21623XXSP,2013-07-02 13:38:00,
2013-07-02 06:43:00,66.4,54.6,29.78,East,90,0.0,0.0,66,0.00,,,0.00,WUHU21623XXSP,2013-07-02 13:43:00,
2013-07-02 06:48:00,66.4,54.6,29.78,East,90,0.0,0.0,66,0.00,,,0.00,WUHU21623XXSP,2013-07-02 13:48:00,
2013-07-02 06:53:00,66.2,54.5,29.78,SE,135,0.0,0.0,66,0.00,,,0.00,WUHU21623XXSP,2013-07-02 13:53:00,
2013-07-02 06:58:00,66.2,54.0,29.78,SSE,157,0.0,0.0,65,0.00,,,0.00,WUHU21623XXSP,2013-07-02 13:58:00,
2013-07-02 07:03:00,66.2,54.0,29.78,SSE,157,0.0,0.0,65,0.00,,,0.00,WUHU21623XXSP,2013-07-02 14:03:00,
2013-07-02 07:08:00,66.2,54.0,29.78,South,180,0.0,0.0,65,0.00,,,0.00,WUHU21623XXSP,2013-07-02 14:08:00,
2013-07-02 07:13:00,66.2,54.5,29.79,ESE,112,0.0,0.0,66,0.00,,,0.00,WUHU21623XXSP,2013-07-02 14:13:00,
2013-07-02 07:18:00,66.2,54.5,29.79,East,90,0.0,0.0,66,0.00,,,0.00,WUHU21623XXSP,2013-07-02 14:18:00,
2013-07-02 07:23:00,66.2,54.5,29.78,NW,315,0.0,0.0,66,0.00,,,0.00,WUHU21623XXSP,2013-07-02 14:23:00,
2013-07-02 07:28:00,66.0,54.3,29.78,West,270,0.0,0.0,66,0.00,,,0.00,WUHU21623XXSP,2013-07-02 14:28:00,
2013-07-02 07:33:00,66.2,54.5,29.78,North,0,0.0,0.0,66,0.00,,,0.00,WUHU21623XXSP,2013-07-02 14:33:00,
2013-07-02 07:38:00,66.2,54.5,29.78,West,270,0.0,0.0,66,0.00,,,0.00,WUHU21623XXSP,2013-07-02 14:38:00,
2013-07-02 07:43:00,66.4,54.6,29.79,WNW,292,0.0,0.0,66,0.00,,,0.00,WUHU21623XXSP,2013-07-02 14:43:00,
2013-07-02 07:48:00,66.6,55.2,29.79,South,180,0.0,0.0,67,0.00,,,0.00,WUHU21623XXSP,2013-07-02 14:48:00,
2013-07-02 07:53:00,66.7,55.4,29.80,WSW,247,0.7,0.7,67,0.00,,,0.00,WUHU21623XXSP,2013-07-02 14:53:00,
2013-07-02 07:58:00,66.9,56.0,29.80,WNW,292,3.6,3.6,68,0.00,,,0.00,WUHU21623XXSP,2013-07-02 14:58:00,
2013-07-02 08:03:00,67.1,56.2,29.80,SW,225,0.0,3.6,68,0.00,,,0.00,WUHU21623XXSP,2013-07-02 15:03:00,
2013-07-02 08:08:00,67.3,55.9,29.81,SW,225,0.0,3.1,67,0.00,,,0.00,WUHU21623XXSP,2013-07-02 15:08:00,
2013-07-02 08:13:00,67.3,55.9,29.80,North,0,0.0,3.1,67,0.00,,,0.00,WUHU21623XXSP,2013-07-02 15:13:00,
2013-07-02 08:18:00,67.5,56.1,29.81,NW,315,0.0,1.3,67,0.00,,,0.00,WUHU21623XXSP,2013-07-02 15:18:00,
2013-07-02 08:23:00,67.6,56.3,29.80,SE,135,1.3,1.3,67,0.00,,,0.00,WUHU21623XXSP,2013-07-02 15:23:00,
2013-07-02 08:28:00,67.6,56.3,29.80,North,0,0.0,1.3,67,0.00,,,0.00,WUHU21623XXSP,2013-07-02 15:28:00,
2013-07-02 08:33:00,67.6,56.3,29.81,SE,135,1.3,1.3,67,0.00,,,0.00,WUHU21623XXSP,2013-07-02 15:33:00,
2013-07-02 08:38:00,67.8,56.4,29.82,West,270,0.0,2.2,67,0.00,,,0.00,WUHU21623XXSP,2013-07-02 15:38:00,
2013-07-02 08:43:00,67.8,56.4,29.82,ESE,112,0.0,2.2,67,0.00,,,0.00,WUHU21623XXSP,2013-07-02 15:43:00,
2013-07-02 08:48:00,67.8,56.4,29.82,West,270,0.0,0.0,67,0.00,,,0.00,WUHU21623XXSP,2013-07-02 15:48:00,
2013-07-02 08:53:00,68.2,57.2,29.82,ENE,67,0.0,2.7,68,0.00,,,0.00,WUHU21623XXSP,2013-07-02 15:53:00,
2013-07-02 08:58:00,68.2,56.8,29.81,West,270,0.9,2.7,67,0.00,,,0.00,WUHU21623XXSP,2013-07-02 15:58:00,
2013-07-02 09:03:00,68.2,56.8,29.81,West,270,0.0,0.9,67,0.00,,,0.00,WUHU21623XXSP,2013-07-02 16:03:00,
2013-07-02 09:08:00,68.2,56.8,29.82,SW,225,0.0,0.0,67,0.00,,,0.00,WUHU21623XXSP,2013-07-02 16:08:00,
2013-07-02 09:13:00,68.2,56.4,29.82,NNW,337,0.0,0.0,66,0.00,,,0.00,WUHU21623XXSP,2013-07-02 16:13:00,
2013-07-02 09:18:00,68.4,56.9,29.81,NNW,337,1.1,1.1,67,0.00,,,0.00,WUHU21623XXSP,2013-07-02 16:18:00,
2013-07-02 09:23:00,68.4,56.5,29.82,North,0,0.0,1.1,66,0.00,,,0.00,WUHU21623XXSP,2013-07-02 16:23:00,
2013-07-02 09:28:00,68.4,56.9,29.82,SSE,157,0.0,0.0,67,0.00,,,0.00,WUHU21623XXSP,2013-07-02 16:28:00,
2013-07-02 09:33:00,68.5,57.1,29.81,SSE,157,0.0,0.0,67,0.00,,,0.00,WUHU21623XXSP,2013-07-02 16:33:00,
2013-07-02 09:38:00,68.7,57.3,29.81,SE,135,1.6,1.6,67,0.00,,,0.00,WUHU21623XXSP,2013-07-02 16:38:00,
2013-07-02 09:43:00,68.9,57.5,29.82,ESE,112,0.0,1.6,67,0.00,,,0.00,WUHU21623XXSP,2013-07-02 16:43:00,
2013-07-02 09:48:00,69.1,58.0,29.82,SE,135,2.0,2.0,68,0.00,,,0.00,WUHU21623XXSP,2013-07-02 16:48:00,
2013-07-02 09:53:00,69.4,58.0,29.82,SW,225,0.0,2.0,67,0.00,,,0.00,WUHU21623XXSP,2013-07-02 16:53:00,
2013-07-02 09:58:00,69.6,57.7,29.82,NE,45,0.0,0.0,66,0.00,,,0.00,WUHU21623XXSP,2013-07-02 16:58:00,
2013-07-02 10:03:00,69.8,57.9,29.82,South,180,2.0,2.0,66,0.00,,,0.00,WUHU21623XXSP,2013-07-02 17:03:00,
2013-07-02 10:08:00,70.2,58.2,29.81,WNW,292,0.0,2.0,66,0.00,,,0.00,WUHU21623XXSP,2013-07-02 17:08:00,
2013-07-02 10:13:00,70.5,58.6,29.82,NNW,337,0.0,2.0,66,0.00,,,0.00,WUHU21623XXSP,2013-07-02 17:13:00,
2013-07-02 10:18:00,70.9,58.9,29.82,NW,315,0.0,0.7,66,0.00,,,0.00,WUHU21623XXSP,2013-07-02 17:18:00,
2013-07-02 10:23:00,71.4,59.4,29.81,North,0,0.0,2.7,66,0.00,,,0.00,WUHU21623XXSP,2013-07-02 17:23:00,
2013-07-02 10:28:00,71.8,59.3,29.81,ESE,112,0.0,2.7,65,0.00,,,0.00,WUHU21623XXSP,2013-07-02 17:28:00,
2013-07-02 10:33:00,72.1,59.7,29.81,SSE,157,1.8,2.5,65,0.00,,,0.00,WUHU21623XXSP,2013-07-02 17:33:00,
2013-07-02 10:38:00,72.7,59.4,29.81,South,180,0.0,3.1,64,0.00,,,0.00,WUHU21623XXSP,2013-07-02 17:38:00,
2013-07-02 10:43:00,73.2,60.3,29.81,East,90,0.0,3.1,64,0.00,,,0.00,WUHU21623XXSP,2013-07-02 17:43:00,
2013-07-02 10:48:00,73.6,60.2,29.81,South,180,0.9,0.9,63,0.00,,,0.00,WUHU21623XXSP,2013-07-02 17:48:00,
2013-07-02 10:53:00,74.1,60.2,29.81,SSW,202,2.0,2.0,62,0.00,,,0.00,WUHU21623XXSP,2013-07-02 17:53:00,
2013-07-02 10:58:00,74.7,60.6,29.81,NW,315,0.0,2.0,62,0.00,,,0.00,WUHU21623XXSP,2013-07-02 17:58:00,
2013-07-02 11:03:00,75.0,60.7,29.81,ESE,112,0.9,1.8,61,0.00,,,0.00,WUHU21623XXSP,2013-07-02 18:03:00,
2013-07-02 11:08:00,75.9,61.1,29.81,SW,225,0.0,1.8,60,0.00,,,0.00,WUHU21623XXSP,2013-07-02 18:08:00,
2013-07-02 11:13:00,76.6,61.2,29.80,West,270,0.0,3.8,59,0.00,,,0.00,WUHU21623XXSP,2013-07-02 18:13:00,
2013-07-02 11:18:00,77.2,61.2,29.81,SSW,202,2.7,3.8,58,0.00,,,0.00,WUHU21623XXSP,2013-07-02 18:18:00,
2013-07-02 11:23:00,77.7,61.2,29.80,ESE,112,0.9,2.7,57,0.00,,,0.00,WUHU21623XXSP,2013-07-02 18:23:00,
2013-07-02 11:28:00,78.4,61.4,29.80,ESE,112,0.9,2.2,56,0.00,,,0.00,WUHU21623XXSP,2013-07-02 18:28:00,
2013-07-02 11:33:00,79.0,61.4,29.80,West,270,0.0,2.0,55,0.00,,,0.00,WUHU21623XXSP,2013-07-02 18:33:00,
2013-07-02 11:38:00,79.7,61.5,29.80,WNW,292,3.1,3.1,54,0.00,,,0.00,WUHU21623XXSP,2013-07-02 18:38:00,
2013-07-02 11:43:00,80.2,62.0,29.80,West,270,0.9,3.1,54,0.00,,,0.00,WUHU21623XXSP,2013-07-02 18:43:00,
2013-07-02 11:48:00,80.8,62.0,29.80,WNW,292,0.9,1.6,53,0.00,,,0.00,WUHU21623XXSP,2013-07-02 18:48:00,
2013-07-02 11:53:00,81.3,62.0,29.80,SW,225,2.5,2.5,52,0.00,,,0.00,WUHU21623XXSP,2013-07-02 18:53:00,
2013-07-02 11:58:00,81.7,62.1,29.79,SSW,202,0.0,2.5,51,0.00,,,0.00,WUHU21623XXSP,2013-07-02 18:58:00,
2013-07-02 12:03:00,82.0,62.1,29.79,SSE,157,0.0,0.9,51,0.00,,,0.00,WUHU21623XXSP,2013-07-02 19:03:00,
2013-07-02 12:08:00,82.9,62.2,29.79,North,0,0.0,0.7,50,0.00,,,0.00,WUHU21623XXSP,2013-07-02 19:08:00,
2013-07-02 12:13:00,83.3,62.2,29.79,WNW,292,1.6,1.6,49,0.00,,,0.00,WUHU21623XXSP,2013-07-02 19:13:00,
2013-07-02 12:18:00,83.8,62.7,29.78,WNW,292,0.9,1.6,49,0.00,,,0.00,WUHU21623XXSP,2013-07-02 19:18:00,
2013-07-02 12:23:00,84.6,62.7,29.78,WSW,247,2.0,11.2,48,0.00,,,0.00,WUHU21623XXSP,2013-07-02 19:23:00,
2013-07-02 12:28:00,84.9,63.1,29.78,West,270,0.9,11.2,48,0.00,,,0.00,WUHU21623XXSP,2013-07-02 19:28:00,
2013-07-02 12:33:00,85.3,63.4,29.78,West,270,0.0,3.1,48,0.00,,,0.00,WUHU21623XXSP,2013-07-02 19:33:00,
2013-07-02 12:38:00,85.8,62.6,29.78,SSW,202,0.0,3.1,46,0.00,,,0.00,WUHU21623XXSP,2013-07-02 19:38:00,
2013-07-02 12:43:00,86.2,62.9,29.78,SW,225,1.3,2.9,46,0.00,,,0.00,WUHU21623XXSP,2013-07-02 19:43:00,
2013-07-02 12:48:00,86.7,63.3,29.78,SSE,157,1.6,1.6,45,0.00,,,0.00,WUHU21623XXSP,2013-07-02 19:48:00,
2013-07-02 12:53:00,87.4,63.4,29.78,WNW,292,2.2,2.2,45,0.00,,,0.00,WUHU21623XXSP,2013-07-02 19:53:00,
2013-07-02 12:58:00,87.8,63.8,29.78,SW,225,1.3,2.2,45,0.00,,,0.00,WUHU21623XXSP,2013-07-02 19:58:00,
2013-07-02 13:03:00,88.2,63.4,29.78,SW,225,0.0,1.3,44,0.00,,,0.00,WUHU21623XXSP,2013-07-02 20:03:00,
2013-07-02 13:08:00,88.7,63.7,29.78,SW,225,0.0,3.1,44,0.00,,,0.00,WUHU21623XXSP,2013-07-02 20:08:00,
2013-07-02 13:13:00,89.2,63.7,29.78,West,270,1.6,3.1,43,0.00,,,0.00,WUHU21623XXSP,2013-07-02 20:13:00,
2013-07-02 13:18:00,89.4,63.8,29.78,West,270,1.6,1.6,43,0.00,,,0.00,WUHU21623XXSP,2013-07-02 20:18:00,
2013-07-02 13:23:00,90.0,63.7,29.78,SSW,202,5.6,5.6,42,0.00,,,0.00,WUHU21623XXSP,2013-07-02 20:23:00,
2013-07-02 13:28:00,90.3,64.0,29.78,SE,135,3.6,5.6,42,0.00,,,0.00,WUHU21623XXSP,2013-07-02 20:28:00,
2013-07-02 13:33:00,90.3,64.0,29.78,SSE,157,1.6,3.6,42,0.00,,,0.00,WUHU21623XXSP,2013-07-02 20:33:00,
2013-07-02 13:38:00,91.0,64.0,29.78,NW,315,0.9,4.0,41,0.00,,,0.00,WUHU21623XXSP,2013-07-02 20:38:00,
2013-07-02 13:43:00,91.2,64.2,29.78,South,180,3.1,4.0,41,0.00,,,0.00,WUHU21623XXSP,2013-07-02 20:43:00,
2013-07-02 13:48:00,91.4,64.3,29.78,WNW,292,2.0,3.1,41,0.00,,,0.00,WUHU21623XXSP,2013-07-02 20:48:00,
2013-07-02 13:53:00,91.2,64.2,29.78,South,180,0.0,4.5,41,0.00,,,0.00,WUHU21623XXSP,2013-07-02 20:53:00,
2013-07-02 13:58:00,91.4,63.7,29.78,SSE,157,4.5,4.5,40,0.00,,,0.00,WUHU21623XXSP,2013-07-02 20:58:00,
2013-07-02 14:03:00,91.6,63.8,29.77,WSW,247,2.0,4.5,40,0.00,,,0.00,WUHU21623XXSP,2013-07-02 21:03:00,
2013-07-02 14:09:00,91.6,63.8,29.77,NNE,22,0.0,7.4,40,0.00,,,0.00,WUHU21623XXSP,2013-07-02 21:09:00,
2013-07-02 14:14:00,91.2,63.5,29.77,WNW,292,1.8,7.4,40,0.00,,,0.00,WUHU21623XXSP,2013-07-02 21:14:00,
2013-07-02 14:19:00,91.0,62.6,29.78,WSW,247,2.9,2.9,39,0.00,,,0.00,WUHU21623XXSP,2013-07-02 21:19:00,
2013-07-02 14:24:00,91.0,62.6,29.78,South,180,0.0,2.9,39,0.00,,,0.00,WUHU21623XXSP,2013-07-02 21:24:00,
2013-07-02 14:29:00,90.9,62.4,29.77,South,180,4.7,4.7,39,0.00,,,0.00,WUHU21623XXSP,2013-07-02 21:29:00,
2013-07-02 14:34:00,90.7,62.2,29.78,SSE,157,6.0,6.0,39,0.00,,,0.00,WUHU21623XXSP,2013-07-02 21:34:00,
2013-07-02 14:39:00,90.7,62.2,29.78,SW,225,3.1,6.0,39,0.00,,,0.00,WUHU21623XXSP,2013-07-02 21:39:00,
2013-07-02 14:44:00,90.7,62.2,29.78,South,180,3.6,3.6,39,0.00,,,0.00,WUHU21623XXSP,2013-07-02 21:44:00,
2013-07-02 14:49:00,90.3,61.1,29.78,SSW,202,5.4,5.4,38,0.00,,,0.00,WUHU21623XXSP,2013-07-02 21:49:00,
2013-07-02 14:54:00,90.3,61.9,29.77,SW,225,0.0,5.4,39,0.00,,,0.00,WUHU21623XXSP,2013-07-02 21:54:00,
2013-07-02 14:59:00,90.0,61.6,29.78,WNW,292,2.0,5.1,39,0.00,,,0.00,WUHU21623XXSP,2013-07-02 21:59:00,
2013-07-02 15:04:00,89.4,61.1,29.77,WNW,292,4.0,5.1,39,0.00,,,0.00,WUHU21623XXSP,2013-07-02 22:04:00,
2013-07-02 15:09:00,88.9,61.8,29.78,SW,225,3.6,4.0,40,0.00,,,0.00,WUHU21623XXSP,2013-07-02 22:09:00,
2013-07-02 15:14:00,88.7,61.3,29.78,West,270,0.7,4.0,40,0.00,,,0.00,WUHU21623XXSP,2013-07-02 22:14:00,
2013-07-02 15:19:00,88.5,61.2,29.78,SW,225,3.4,3.6,40,0.00,,,0.00,WUHU21623XXSP,2013-07-02 22:19:00,
2013-07-02 15:24:00,88.0,61.4,29.78,WNW,292,2.0,5.8,41,0.00,,,0.00,WUHU21623XXSP,2013-07-02 22:24:00,
2013-07-02 15:29:00,87.8,61.3,29.78,WSW,247,0.9,5.8,41,0.00,,,0.00,WUHU21623XXSP,2013-07-02 22:29:00,
2013-07-02 15:34:00,87.8,61.9,29.78,ESE,112,1.1,4.9,42,0.00,,,0.00,WUHU21623XXSP,2013-07-02 22:34:00,
2013-07-02 15:39:00,88.0,61.4,29.78,ESE,112,3.8,5.4,41,0.00,,,0.00,WUHU21623XXSP,2013-07-02 22:39:00,
2013-07-02 15:44:00,88.0,61.4,29.78,SW,225,2.7,5.4,41,0.00,,,0.00,WUHU21623XXSP,2013-07-02 22:44:00,
2013-07-02 15:49:00,87.8,61.3,29.78,South,180,1.8,3.8,41,0.00,,,0.00,WUHU21623XXSP,2013-07-02 22:49:00,
2013-07-02 15:54:00,87.6,61.1,29.79,SW,225,2.5,4.3,41,0.00,,,0.00,WUHU21623XXSP,2013-07-02 22:54:00,
2013-07-02 15:59:00,87.6,61.1,29.79,SSW,202,2.9,4.3,41,0.00,,,0.00,WUHU21623XXSP,2013-07-02 22:59:00,
2013-07-02 16:04:00,87.4,60.9,29.79,WNW,292,5.6,5.6,41,0.00,,,0.00,WUHU21623XXSP,2013-07-02 23:04:00,
2013-07-02 16:09:00,87.3,60.8,29.79,NW,315,0.9,5.6,41,0.00,,,0.00,WUHU21623XXSP,2013-07-02 23:09:00,
2013-07-02 16:14:00,87.1,60.6,29.79,ESE,112,5.1,5.1,41,0.00,,,0.00,WUHU21623XXSP,2013-07-02 23:14:00,
2013-07-02 16:19:00,86.9,60.6,29.80,ESE,112,5.1,5.1,41,0.00,,,0.00,WUHU21623XXSP,2013-07-02 23:19:00,
2013-07-02 16:24:00,86.5,60.1,29.80,West,270,3.6,5.1,41,0.00,,,0.00,WUHU21623XXSP,2013-07-02 23:24:00,
2013-07-02 16:29:00,86.0,59.6,29.80,West,270,6.5,6.5,41,0.00,,,0.00,WUHU21623XXSP,2013-07-02 23:29:00,
2013-07-02 16:34:00,85.5,59.5,29.80,WNW,292,8.3,8.3,41,0.00,,,0.00,WUHU21623XXSP,2013-07-02 23:34:00,
2013-07-02 16:39:00,84.7,58.5,29.81,North,0,0.9,8.3,41,0.00,,,0.00,WUHU21623XXSP,2013-07-02 23:39:00,
2013-07-02 16:44:00,84.2,58.0,29.81,West,270,5.1,5.1,41,0.00,,,0.00,WUHU21623XXSP,2013-07-02 23:44:00,
2013-07-02 16:49:00,83.5,57.3,29.81,West,270,0.0,5.1,41,0.00,,,0.00,WUHU21623XXSP,2013-07-02 23:49:00,
2013-07-02 16:54:00,82.9,57.0,29.82,SW,225,2.2,5.1,41,0.00,,,0.00,WUHU21623XXSP,2013-07-02 23:54:00,
2013-07-02 16:59:00,82.8,56.7,29.82,North,0,1.3,2.2,41,0.00,,,0.00,WUHU21623XXSP,2013-07-02 23:59:00,
2013-07-02 17:04:00,82.2,56.2,29.82,West,270,6.0,6.0,42,0.00,,,0.00,WUHU21623XXSP,2013-07-03 00:04:00,
2013-07-02 17:09:00,82.2,56.8,29.82,West,270,1.3,6.0,42,0.00,,,0.00,WUHU21623XXSP,2013-07-03 00:09:00,
2013-07-02 17:14:00,82.2,56.8,29.82,WNW,292,1.8,1.8,42,0.00,,,0.00,WUHU21623XXSP,2013-07-03 00:14:00,
2013-07-02 17:19:00,82.0,56.7,29.81,NW,315,2.9,2.9,42,0.00,,,0.00,WUHU21623XXSP,2013-07-03 00:19:00,
2013-07-02 17:24:00,81.7,56.3,29.81,WSW,247,3.6,3.6,42,0.00,,,0.00,WUHU21623XXSP,2013-07-03 00:24:00,
2013-07-02 17:29:00,81.7,56.3,29.81,West,270,0.0,3.6,42,0.00,,,0.00,WUHU21623XXSP,2013-07-03 00:29:00,
2013-07-02 17:34:00,81.9,56.3,29.82,WNW,292,2.5,3.6,42,0.00,,,0.00,WUHU21623XXSP,2013-07-03 00:34:00,
2013-07-02 17:39:00,82.0,56.7,29.82,South,180,6.3,6.3,42,0.00,,,0.00,WUHU21623XXSP,2013-07-03 00:39:00,
2013-07-02 17:44:00,82.0,56.7,29.81,West,270,1.3,6.3,42,0.00,,,0.00,WUHU21623XXSP,2013-07-03 00:44:00,
2013-07-02 17:49:00,82.0,56.7,29.82,South,180,4.3,6.3,42,0.00,,,0.00,WUHU21623XXSP,2013-07-03 00:49:00,
2013-07-02 17:54:00,82.0,56.7,29.82,SSE,157,0.0,4.3,42,0.00,,,0.00,WUHU21623XXSP,2013-07-03 00:54:00,
2013-07-02 17:59:00,82.0,56.0,29.82,WSW,247,1.1,1.3,41,0.00,,,0.00,WUHU21623XXSP,2013-07-03 00:59:00,
2013-07-02 18:04:00,82.0,56.0,29.82,SSE,157,2.0,2.0,41,0.00,,,0.00,WUHU21623XXSP,2013-07-03 01:04:00,
2013-07-02 18:09:00,81.7,55.7,29.82,WNW,292,0.0,2.0,41,0.00,,,0.00,WUHU21623XXSP,2013-07-03 01:09:00,
2013-07-02 18:14:00,81.3,55.6,29.82,SSE,157,1.3,1.3,41,0.00,,,0.00,WUHU21623XXSP,2013-07-03 01:14:00,
2013-07-02 18:19:00,81.1,55.2,29.82,SSW,202,0.0,1.3,41,0.00,,,0.00,WUHU21623XXSP,2013-07-03 01:19:00,
2013-07-02 18:24:00,80.8,54.9,29.82,SSW,202,0.7,1.3,41,0.00,,,0.00,WUHU21623XXSP,2013-07-03 01:24:00,
2013-07-02 18:29:00,80.6,54.8,29.81,ESE,112,0.0,0.7,41,0.00,,,0.00,WUHU21623XXSP,2013-07-03 01:29:00,
2013-07-02 18:34:00,80.2,54.4,29.82,SSE,157,3.6,3.6,41,0.00,,,0.00,WUHU21623XXSP,2013-07-03 01:34:00,
2013-07-02 18:39:00,79.7,54.1,29.82,SSE,157,6.0,6.0,41,0.00,,,0.00,WUHU21623XXSP,2013-07-03 01:39:00,
2013-07-02 18:44:00,79.3,54.2,29.82,SSE,157,2.7,6.0,42,0.00,,,0.00,WUHU21623XXSP,2013-07-03 01:44:00,
2013-07-02 18:49:00,78.6,53.6,29.82,South,180,2.2,3.6,42,0.00,,,0.00,WUHU21623XXSP,2013-07-03 01:49:00,
2013-07-02 18:54:00,78.1,53.1,29.82,SE,135,2.5,4.3,42,0.00,,,0.00,WUHU21623XXSP,2013-07-03 01:54:00,
2013-07-02 19:00:00,77.7,53.4,29.82,SW,225,2.0,4.3,43,0.00,,,0.00,WUHU21623XXSP,2013-07-03 02:00:00,
2013-07-02 19:05:00,77.4,53.1,29.83,East,90,2.0,2.0,43,0.00,,,0.00,WUHU21623XXSP,2013-07-03 02:05:00,
2013-07-02 19:10:00,76.8,52.6,29.82,SSE,157,3.8,3.8,43,0.00,,,0.00,WUHU21623XXSP,2013-07-03 02:10:00,
2013-07-02 19:15:00,76.3,52.7,29.82,SSW,202,6.0,6.0,44,0.00,,,0.00,WUHU21623XXSP,2013-07-03 02:15:00,
2013-07-02 19:20:00,75.7,52.4,29.83,SSW,202,2.2,6.0,44,0.00,,,0.00,WUHU21623XXSP,2013-07-03 02:20:00,
2013-07-02 19:25:00,75.2,52.3,29.83,SSW,202,0.0,2.2,45,0.00,,,0.00,WUHU21623XXSP,2013-07-03 02:25:00,
2013-07-02 19:30:00,74.5,52.3,29.84,SW,225,4.5,5.8,46,0.00,,,0.00,WUHU21623XXSP,2013-07-03 02:30:00,
2013-07-02 19:35:00,73.9,51.7,29.84,SSE,157,2.9,8.1,46,0.00,,,0.00,WUHU21623XXSP,2013-07-03 02:35:00,
2013-07-02 19:40:00,73.0,51.5,29.84,South,180,2.7,8.1,47,0.00,,,0.00,WUHU21623XXSP,2013-07-03 02:40:00,
2013-07-02 19:45:00,72.3,51.4,29.83,East,90,0.0,2.7,48,0.00,,,0.00,WUHU21623XXSP,2013-07-03 02:45:00,
2013-07-02 19:50:00,72.1,51.3,29.84,SSE,157,0.0,1.3,48,0.00,,,0.00,WUHU21623XXSP,2013-07-03 02:50:00,
2013-07-02 19:55:00,71.4,51.5,29.84,SE,135,0.9,1.1,50,0.00,,,0.00,WUHU21623XXSP,2013-07-03 02:55:00,
2013-07-02 20:00:00,70.9,51.7,29.84,WSW,247,0.0,1.1,50,0.00,,,0.00,WUHU21623XXSP,2013-07-03 03:00:00,
2013-07-02 20:05:00,70.3,51.4,29.83,SSE,157,3.4,3.4,51,0.00,,,0.00,WUHU21623XXSP,2013-07-03 03:05:00,
2013-07-02 20:10:00,69.8,51.4,29.83,SW,225,0.0,3.4,52,0.00,,,0.00,WUHU21623XXSP,2013-07-03 03:10:00,
2013-07-02 20:16:00,69.6,51.7,29.84,SE,135,0.0,3.4,53,0.00,,,0.00,WUHU21623XXSP,2013-07-03 03:16:00,
2013-07-02 20:21:00,69.1,51.2,29.83,South,180,2.9,3.4,53,0.00,,,0.00,WUHU21623XXSP,2013-07-03 03:21:00,
2013-07-02 20:26:00,68.7,51.4,29.83,South,180,3.8,4.3,54,0.00,,,0.00,WUHU21623XXSP,2013-07-03 03:26:00,
2013-07-02 20:31:00,68.5,51.7,29.84,SE,135,0.0,4.3,55,0.00,,,0.00,WUHU21623XXSP,2013-07-03 03:31:00,
2013-07-02 20:36:00,68.2,52.3,29.84,South,180,0.9,2.0,57,0.00,,,0.00,WUHU21623XXSP,2013-07-03 03:36:00,
2013-07-02 20:41:00,67.8,52.0,29.85,ESE,112,2.5,2.5,57,0.00,,,0.00,WUHU21623XXSP,2013-07-03 03:41:00,
2013-07-02 20:46:00,67.6,52.3,29.84,NW,315,0.0,2.5,58,0.00,,,0.00,WUHU21623XXSP,2013-07-03 03:46:00,
2013-07-02 20:51:00,67.1,52.3,29.84,East,90,0.0,2.0,59,0.00,,,0.00,WUHU21623XXSP,2013-07-03 03:51:00,
2013-07-02 20:56:00,66.7,52.6,29.84,WSW,247,0.7,2.0,60,0.00,,,0.00,WUHU21623XXSP,2013-07-03 03:56:00,
2013-07-02 21:01:00,66.6,52.3,29.85,South,180,0.0,3.6,60,0.00,,,0.00,WUHU21623XXSP,2013-07-03 04:01:00,
2013-07-02 21:06:00,66.2,52.4,29.85,West,270,0.0,3.6,61,0.00,,,0.00,WUHU21623XXSP,2013-07-03 04:06:00,
2013-07-02 21:11:00,66.0,52.6,29.84,ESE,112,0.0,1.6,62,0.00,,,0.00,WUHU21623XXSP,2013-07-03 04:11:00,
2013-07-02 21:16:00,65.8,52.9,29.84,ESE,112,0.0,2.2,63,0.00,,,0.00,WUHU21623XXSP,2013-07-03 04:16:00,
2013-07-02 21:21:00,65.3,52.5,29.85,WNW,292,0.0,2.2,63,0.00,,,0.00,WUHU21623XXSP,2013-07-03 04:21:00,
2013-07-02 21:26:00,65.3,52.8,29.85,WNW,292,0.0,0.0,64,0.00,,,0.00,WUHU21623XXSP,2013-07-03 04:26:00,
2013-07-02 21:31:00,65.1,52.6,29.85,West,270,0.0,0.0,65,0.00,,,0.00,WUHU21623XXSP,2013-07-03 04:31:00,
2013-07-02 21:36:00,64.9,52.8,29.85,West,270,0.0,2.5,65,0.00,,,0.00,WUHU21623XXSP,2013-07-03 04:36:00,
2013-07-02 21:41:00,64.9,53.3,29.85,SSE,157,2.7,2.7,66,0.00,,,0.00,WUHU21623XXSP,2013-07-03 04:41:00,
2013-07-02 21:46:00,64.8,53.5,29.85,SSW,202,0.0,2.7,67,0.00,,,0.00,WUHU21623XXSP,2013-07-03 04:46:00,
2013-07-02 21:51:00,64.6,53.4,29.85,SSE,157,0.0,2.7,67,0.00,,,0.00,WUHU21623XXSP,2013-07-03 04:51:00,
2013-07-02 21:56:00,64.4,53.2,29.85,SW,225,0.9,0.9,67,0.00,,,0.00,WUHU21623XXSP,2013-07-03 04:56:00,
2013-07-02 22:01:00,64.2,53.0,29.85,WSW,247,1.6,1.6,67,0.00,,,0.00,WUHU21623XXSP,2013-07-03 05:01:00,
2013-07-02 22:06:00,64.2,53.0,29.86,WNW,292,0.0,1.6,67,0.00,,,0.00,WUHU21623XXSP,2013-07-03 05:06:00,
2013-07-02 22:11:00,64.2,53.5,29.86,ESE,112,0.0,0.0,69,0.00,,,0.00,WUHU21623XXSP,2013-07-03 05:11:00,
2013-07-02 22:16:00,64.2,53.9,29.86,North,0,0.0,0.0,69,0.00,,,0.00,WUHU21623XXSP,2013-07-03 05:16:00,
2013-07-02 22:21:00,64.0,54.1,29.86,SSW,202,0.0,0.0,69,0.00,,,0.00,WUHU21623XXSP,2013-07-03 05:21:00,
2013-07-02 22:26:00,64.0,54.1,29.85,WNW,292,0.0,0.0,70,0.00,,,0.00,WUHU21623XXSP,2013-07-03 05:26:00,
2013-07-02 22:31:00,64.0,53.7,29.85,South,180,0.0,0.0,69,0.00,,,0.00,WUHU21623XXSP,2013-07-03 05:31:00,
2013-07-02 22:36:00,63.7,53.8,29.86,SSW,202,0.9,0.9,70,0.00,,,0.00,WUHU21623XXSP,2013-07-03 05:36:00,
2013-07-02 22:41:00,63.7,54.1,29.87,SSW,202,0.0,0.9,71,0.00,,,0.00,WUHU21623XXSP,2013-07-03 05:41:00,
2013-07-02 22:46:00,63.7,54.1,29.87,SSW,202,0.0,0.0,71,0.00,,,0.00,WUHU21623XXSP,2013-07-03 05:46:00,
2013-07-02 22:51:00,63.5,54.3,29.87,SW,225,0.0,0.0,72,0.00,,,0.00,WUHU21623XXSP,2013-07-03 05:51:00,
2013-07-02 22:56:00,63.5,54.7,29.86,SSW,202,0.0,0.0,73,0.00,,,0.00,WUHU21623XXSP,2013-07-03 05:56:00,
2013-07-02 23:01:00,63.5,54.3,29.86,SW,225,0.9,0.9,72,0.00,,,0.00,WUHU21623XXSP,2013-07-03 06:01:00,
2013-07-02 23:06:00,63.3,54.1,29.87,South,180,0.0,0.9,72,0.00,,,0.00,WUHU21623XXSP,2013-07-03 06:06:00,
2013-07-02 23:11:00,63.3,54.5,29.87,SSE,157,0.0,0.0,73,0.00,,,0.00,WUHU21623XXSP,2013-07-03 06:11:00,
2013-07-02 23:16:00,63.3,54.9,29.86,WSW,247,0.0,0.0,74,0.00,,,0.00,WUHU21623XXSP,2013-07-03 06:16:00,
2013-07-02 23:21:00,63.1,54.7,29.87,South,180,0.0,0.0,74,0.00,,,0.00,WUHU21623XXSP,2013-07-03 06:21:00,
2013-07-02 23:26:00,63.1,55.0,29.87,SSW,202,0.0,0.0,75,0.00,,,0.00,WUHU21623XXSP,2013-07-03 06:26:00,
2013-07-02 23:31:00,63.0,54.9,29.86,SSE,157,2.0,2.0,75,0.00,,,0.00,WUHU21623XXSP,2013-07-03 06:31:00,
2013-07-02 23:36:00,63.0,55.6,29.86,SSE,157,0.9,2.2,77,0.00,,,0.00,WUHU21623XXSP,2013-07-03 06:36:00,
2013-07-02 23:42:00,62.8,55.4,29.87,SSE,157,1.1,2.2,77,0.00,,,0.00,WUHU21623XXSP,2013-07-03 06:42:00,
2013-07-02 23:47:00,62.6,55.2,29.87,South,180,0.0,1.1,77,0.00,,,0.00,WUHU21623XXSP,2013-07-03 06:47:00,
2013-07-02 23:52:00,62.4,55.1,29.86,SSW,202,0.0,0.0,77,0.00,,,0.00,WUHU21623XXSP,2013-07-03 06:52:00,
2013-07-02 23:57:00,62.4,55.1,29.86,South,180,1.3,1.3,77,0.00,,,0.00,WUHU21623XXSP,2013-07-03 06:57:00,